Quincy, IL

8:42 AM CDT on July 22, 2017 (GMT -0500)
Quincy Regional-Baldwin

Weather History for KUIN - June, 2014

Change the Weather History Date:

Sunday, June 1, 2014

  Actual Average Record
Temperature  
Mean Temperature 79 °F 68 °F  
Max Temperature 88 °F 78 °F 101 °F (1934)
Min Temperature 69 °F 58 °F 45 °F (2012)
Degree Days  
Heating Degree Days 0 2  
Month to date heating degree days 0 2  
Since 1 June heating degree days 0 2  
Since 1 July heating degree days 6251 5568  
Cooling Degree Days 14 4  
Month to date cooling degree days 14 4  
Year to date cooling degree days 157 90  
Since 1 June cooling degree days 14 4  
Growing Degree Days 28 (Base 50)    
Moisture  
Dew Point 67 °F    
Average Humidity 71    
Maximum Humidity 90    
Minimum Humidity 51    
Precipitation  
Precipitation 0.08 in 0.15 in 2.81 in (2006)
Month to date precipitation 0.08 0.15  
Year to date precipitation 8.49 14.24  
Sea Level Pressure  
Sea Level Pressure 29.96 in    
Wind  
Wind Speed 11 mph (South)    
Max Wind Speed 21 mph    
Max Gust Speed 27 mph    
Visibility 8 miles    
Events Rain , Thunderstorm    
T = Trace of Precipitation, MM = Missing Value Source: NWS Daily Summary

Daily Weather History Graph

Daily Weather History Graph

Search for Another Location

Airport or City:

Trip Planner

Search our weather history database for the weather conditions in past years. The results will help you decide how hot, cold, wet, or windy it might be!

Date:

Astronomy

Jun. 01, 2014 Rise Set
Actual Time 5:38 AM CDT 8:27 PM CDT
Civil Twilight 5:06 AM CDT 8:59 PM CDT
Nautical Twilight 4:25 AM CDT 9:40 PM CDT
Astronomical Twilight 3:39 AM CDT 10:26 PM CDT
Moon 9:10 AM CDT (6/1) 11:22 PM CDT (6/1)
Length of Visible Light 15h 53m
Length of Day
14h 49m
Waxing Crescent, 14% of the Moon is Illuminated
Jun 1
Waxing Crescent
Jun 5
First Quarter
Jun 12
Full
Jun 19
Last Quarter
Jun 27
New

Hourly Weather History & Observations

Time (CDT) Temp. Heat Index Dew Point Humidity Pressure Visibility Wind Dir Wind Speed Gust Speed Precip Events Conditions
12:54 AM 72.0 °F - 66.9 °F 84% 30.01 in 8.0 mi SSE 8.1 mph - N/A   Clear
1:54 AM 72.0 °F - 66.9 °F 84% 30.01 in 7.0 mi SSE 9.2 mph - N/A   Clear
2:54 AM 71.1 °F - 66.9 °F 87% 30.00 in 7.0 mi SSE 8.1 mph - N/A   Clear
3:54 AM 71.6 °F - 66.2 °F 83% 30.01 in 5.0 mi SSE 8.1 mph - N/A   Clear
4:54 AM 70.0 °F - 66.9 °F 90% 30.00 in 4.0 mi South 4.6 mph - N/A   Clear
5:39 AM 70.0 °F - 66.9 °F 90% 30.02 in 2.0 mi South 4.6 mph - N/A   Clear
5:54 AM 70.0 °F - 66.9 °F 90% 30.00 in 2.0 mi South 5.8 mph - N/A   Clear
6:42 AM 71.1 °F - 68.0 °F 90% 30.02 in 3.0 mi SSE 6.9 mph - N/A   Clear
6:54 AM 71.1 °F - 68.0 °F 90% 30.00 in 4.0 mi SSE 8.1 mph - N/A   Clear
7:54 AM 75.0 °F - 68.0 °F 79% 30.01 in 9.0 mi South 10.4 mph - N/A   Clear
8:54 AM 78.8 °F - 69.8 °F 74% 30.02 in 10.0 mi South 11.5 mph - N/A   Clear
9:54 AM 80.6 °F 83.9 °F 69.8 °F 70% 30.03 in 10.0 mi SSW 12.7 mph - N/A   Partly Cloudy
10:26 AM 79.0 °F - 68.0 °F 69% 30.02 in 10.0 mi SSW 9.2 mph - N/A   Mostly Cloudy
10:35 AM 80.1 °F 82.9 °F 69.1 °F 69% 30.02 in 10.0 mi SSW 10.4 mph - N/A   Mostly Cloudy
10:54 AM 82.0 °F 84.9 °F 68.0 °F 62% 29.99 in 10.0 mi SSW 10.4 mph - N/A   Mostly Cloudy
11:00 AM 82.0 °F 84.9 °F 68.0 °F 62% 30.01 in 10.0 mi South 10.4 mph - N/A Thunderstorm Thunderstorm
11:19 AM 73.9 °F - 66.9 °F 79% 30.02 in 4.0 mi South 20.7 mph 26.5 mph 0.01 in Rain , Thunderstorm Light Thunderstorms and Rain
11:34 AM 72.0 °F - 66.9 °F 84% 30.01 in 2.5 mi South 10.4 mph 23.0 mph 0.07 in Rain , Thunderstorm Rain
11:44 AM 73.0 °F - 66.9 °F 81% 30.01 in 7.0 mi SSW 9.2 mph - 0.08 in Rain , Thunderstorm Light Rain
11:54 AM 73.0 °F - 68.0 °F 84% 30.00 in 10.0 mi South 11.5 mph - 0.08 in Thunderstorm Thunderstorm
12:08 PM 75.0 °F - 69.1 °F 82% 30.00 in 10.0 mi South 6.9 mph - 0.00 in Rain Light Rain
12:54 PM 82.0 °F 86.3 °F 71.1 °F 69% 29.96 in 10.0 mi South 10.4 mph - 0.00 in   Clear
1:54 PM 84.2 °F 86.6 °F 66.2 °F 55% 29.95 in 10.0 mi South 15.0 mph - N/A   Scattered Clouds
2:54 PM 87.1 °F 90.6 °F 68.0 °F 53% 29.90 in 10.0 mi SSW 15.0 mph - N/A   Partly Cloudy
3:54 PM 84.9 °F 87.1 °F 66.0 °F 53% 29.87 in 10.0 mi South 15.0 mph 21.9 mph N/A   Scattered Clouds
4:54 PM 86.0 °F 88.2 °F 66.2 °F 51% 29.87 in 10.0 mi South 12.7 mph 25.3 mph N/A   Partly Cloudy
5:54 PM 84.2 °F 85.6 °F 64.4 °F 51% 29.85 in 10.0 mi South 18.4 mph 24.2 mph N/A   Clear
6:54 PM 82.9 °F 85.0 °F 66.0 °F 56% 29.83 in 10.0 mi South 11.5 mph - N/A   Clear
7:54 PM 81.0 °F 82.7 °F 64.9 °F 58% 29.84 in 10.0 mi South 12.7 mph - N/A   Scattered Clouds
8:54 PM 79.0 °F - 64.9 °F 62% 29.84 in 10.0 mi South 11.5 mph 19.6 mph N/A   Clear
9:54 PM 77.0 °F - 64.4 °F 65% 29.88 in 10.0 mi South 12.7 mph - N/A   Clear
10:54 PM 75.9 °F - 64.9 °F 69% 29.87 in 10.0 mi South 9.2 mph - N/A   Partly Cloudy
11:54 PM 75.9 °F - 64.9 °F 69% 29.87 in 10.0 mi South 12.7 mph - N/A   Overcast